User: anonymous   Login
Location: Mentone
(34.5413°N, 85.5351°W)
Time: 10:23:03
(UTC-06:00)
Language:

Uosat F - Orbit

View from above orbital plane
View from above orbital plane
View from above satellite
View from above satellite

Ground track
Ground track

The orbit data is extracted from the following two-line orbital elements,

1 21575U 91050B   14355.55451781  .00000542  00000-0  18455-3 0  1987
2 21575 098.7222 335.0660 0008425 121.6187 357.3039 14.40517341230454
Epoch (UTC): 21 December 2014 13:18:30
Eccentricity: 0.0008425
inclination: 98.7222°
perigee height: 751 km
apogee height: 763 km
right ascension of ascending node: 335.0660°
argument of perigee: 121.6187°
revolutions per day: 14.40517341
mean anomaly at epoch: 357.3039°
orbit number at epoch: 23045

The dashed part of the orbit path shows where the satellite is in the earth's shadow,  

DLR